Погода в Чесноковке

Россия / Республика Башкортостан     54°36′43″N   55°56′15″E
темп.,
°C
ветер,
м/с
пор.,
м/с
влажн.,
%
обл.,
%
осадки,
мм/ч
давл.,
гПа
погр.,
м
17 мая, пн
пн1723:00+21ююз34506 0.0 101944
02:00+19ююз335587 0.1 101930
05:00+17вюв226123 0.1 101919
08:00+21ююз48565 0.0 1020256
11:00+27юз5640100 0.2 1020714
14:00+30юз463015 0.0 10192253
17:00+29сз573099 0.0 10182032
20:00+23ю464771 0.2 101876
18 мая, вт
вт1823:00+20ю48545 0.2 1018124
02:00+18ююз35580 0.0 101859
05:00+16ююз116155 0.0 101811
08:00+20з24538 0.0 1018170
11:00+25с33495 0.0 1018697
14:00+28ссз34435 0.0 10171505
17:00+27ссз6641100 0.0 10171538
20:00+22с5955100 0.0 1017265
19 мая, ср
ср1923:00+18ссв512625 0.0 1018286
02:00+16св411740 0.0 1018279
05:00+13св36840 0.0 1019104
08:00+16всв34740 0.0 1020302
11:00+21в45580 0.0 10211046
14:00+24вюв35420 0.0 10211532
17:00+25ююв23365 0.0 10201740
20:00+21ююв47510 0.0 1020137
20 мая, чт
чт2023:00+16юв411544 0.0 1022213
02:00+14юв410575 0.0 1023186
05:00+12юв37615 0.0 1024121
08:00+16юв59565 0.0 1024332
11:00+21юв55420 0.0 10241085
14:00+24юв46310 0.0 10221857
17:00+25юв47284 0.0 10202154
20:00+21юв3551100 0.0 101890
21 мая, пт
пт2123:00+16юв3748100 0.0 101990
02:00+14юв3551100 0.0 101962
05:00+13вюв4115322 0.0 1019195
08:00+18ююв5135478 0.0 1019589
11:00+22ю79416 0.0 10191079
14:00+23ююз684298 0.0 10191047
17:00+22юз584982 0.0 1018889
20:00+19ю48640 0.1 1019235